Time,TemperatureF,DewpointF,PressureIn,WindDirection,WindDirectionDegrees,WindSpeedMPH,WindSpeedGustMPH,Humidity,HourlyPrecipIn,Conditions,Clouds,dailyrainin,SoftwareType,DateUTC
2013-04-21 00:02:00,55.0,42.0,30.23,SSE,151,0.0,3.0,61,0.00,,,0.00,,2013-04-21 05:02:00,
2013-04-21 00:12:00,55.0,42.0,30.23,SSE,151,0.0,3.0,61,0.00,,,0.00,,2013-04-21 05:12:00,
2013-04-21 00:22:00,55.0,42.0,30.23,ESE,105,0.0,5.0,61,0.00,,,0.00,,2013-04-21 05:22:00,
2013-04-21 00:32:00,54.0,41.0,30.24,ESE,111,1.0,4.0,62,0.00,,,0.00,,2013-04-21 05:32:00,
2013-04-21 00:42:00,54.0,41.0,30.24,ESE,111,1.0,4.0,62,0.00,,,0.00,,2013-04-21 05:42:00,
2013-04-21 00:52:00,54.0,42.0,30.24,ENE,62,1.0,5.0,63,0.00,,,0.00,,2013-04-21 05:52:00,
2013-04-21 01:01:00,54.0,42.0,30.24,ESE,122,1.0,6.0,63,0.00,,,0.00,,2013-04-21 06:01:00,
2013-04-21 01:12:00,54.0,42.0,30.24,ESE,122,1.0,6.0,63,0.00,,,0.00,,2013-04-21 06:12:00,
2013-04-21 01:21:00,54.0,43.0,30.24,East,98,2.0,6.0,65,0.00,,,0.00,,2013-04-21 06:21:00,
2013-04-21 01:32:00,53.0,42.0,30.24,SE,128,1.0,5.0,66,0.00,,,0.00,,2013-04-21 06:32:00,
2013-04-21 01:42:00,53.0,42.0,30.24,SE,128,1.0,5.0,66,0.00,,,0.00,,2013-04-21 06:42:00,
2013-04-21 01:52:00,53.0,42.0,30.24,ESE,113,2.0,5.0,67,0.00,,,0.00,,2013-04-21 06:52:00,
2013-04-21 02:01:00,53.0,43.0,30.24,East,82,2.0,7.0,69,0.00,,,0.00,,2013-04-21 07:01:00,
2013-04-21 02:11:00,53.0,43.0,30.24,ESE,109,3.0,4.0,70,0.00,,,0.00,,2013-04-21 07:11:00,
2013-04-21 02:21:00,53.0,43.0,30.24,ESE,109,3.0,4.0,70,0.00,,,0.00,,2013-04-21 07:21:00,
2013-04-21 02:31:00,52.0,43.0,30.24,SE,136,1.0,6.0,71,0.00,,,0.00,,2013-04-21 07:31:00,
2013-04-21 02:41:00,52.0,43.0,30.24,SE,136,1.0,6.0,71,0.00,,,0.00,,2013-04-21 07:41:00,
2013-04-21 02:52:00,52.0,43.0,30.24,ESE,118,1.0,6.0,71,0.00,,,0.00,,2013-04-21 07:52:00,
2013-04-21 03:01:00,52.0,43.0,30.24,East,101,2.0,6.0,71,0.00,,,0.00,,2013-04-21 08:01:00,
2013-04-21 03:12:00,52.0,43.0,30.24,East,101,2.0,6.0,71,0.00,,,0.00,,2013-04-21 08:12:00,
2013-04-21 03:21:00,52.0,43.0,30.24,East,91,2.0,7.0,71,0.00,,,0.00,,2013-04-21 08:21:00,
2013-04-21 03:32:00,52.0,43.0,30.23,ESE,103,2.0,7.0,72,0.00,,,0.00,,2013-04-21 08:32:00,
2013-04-21 03:41:00,52.0,43.0,30.23,ESE,103,2.0,7.0,72,0.00,,,0.00,,2013-04-21 08:41:00,
2013-04-21 03:52:00,51.0,42.0,30.24,ESE,109,2.0,6.0,72,0.00,,,0.00,,2013-04-21 08:52:00,
2013-04-21 04:01:00,51.0,43.0,30.24,ESE,122,1.0,6.0,73,0.00,,,0.00,,2013-04-21 09:01:00,
2013-04-21 04:12:00,51.0,43.0,30.24,ESE,122,1.0,6.0,73,0.00,,,0.00,,2013-04-21 09:12:00,
2013-04-21 04:21:00,51.0,43.0,30.24,East,80,2.0,6.0,73,0.00,,,0.00,,2013-04-21 09:21:00,
2013-04-21 04:32:00,50.0,42.0,30.24,ESE,103,0.0,4.0,74,0.00,,,0.00,,2013-04-21 09:32:00,
2013-04-21 04:43:00,50.0,42.0,30.24,ESE,103,0.0,4.0,74,0.00,,,0.00,,2013-04-21 09:43:00,
2013-04-21 04:53:00,50.0,42.0,30.24,East,93,0.0,3.0,75,0.00,,,0.00,,2013-04-21 09:53:00,
2013-04-21 05:02:00,49.0,42.0,30.25,ESE,118,0.0,2.0,76,0.00,,,0.00,,2013-04-21 10:02:00,
2013-04-21 05:12:00,49.0,42.0,30.25,ESE,118,0.0,2.0,76,0.00,,,0.00,,2013-04-21 10:12:00,
2013-04-21 05:22:00,49.0,42.0,30.25,SE,124,0.0,2.0,77,0.00,,,0.00,,2013-04-21 10:22:00,
2013-04-21 05:32:00,48.0,41.0,30.25,East,95,0.0,3.0,77,0.00,,,0.00,,2013-04-21 10:32:00,
2013-04-21 05:42:00,48.0,41.0,30.25,East,95,0.0,3.0,77,0.00,,,0.00,,2013-04-21 10:42:00,
2013-04-21 05:52:00,48.0,41.0,30.26,ESE,108,0.0,1.0,77,0.00,,,0.00,,2013-04-21 10:52:00,
2013-04-21 06:02:00,47.0,41.0,30.27,NNE,19,0.0,1.0,79,0.00,,,0.00,,2013-04-21 11:02:00,
2013-04-21 06:12:00,47.0,41.0,30.27,NNE,19,0.0,1.0,79,0.00,,,0.00,,2013-04-21 11:12:00,
2013-04-21 06:22:00,46.0,40.0,30.28,NW,324,0.0,1.0,79,0.00,,,0.00,,2013-04-21 11:22:00,
2013-04-21 06:34:00,46.0,40.0,30.28,East,87,0.0,1.0,79,0.00,,,0.00,,2013-04-21 11:34:00,
2013-04-21 06:42:00,46.0,40.0,30.28,East,87,0.0,1.0,79,0.00,,,0.00,,2013-04-21 11:42:00,
2013-04-21 06:52:00,45.0,39.0,30.28,ESE,117,0.0,1.0,79,0.00,,,0.00,,2013-04-21 11:52:00,
2013-04-21 07:02:00,45.0,39.0,30.29,ESE,117,0.0,0.0,79,0.00,,,0.00,,2013-04-21 12:02:00,
2013-04-21 07:12:00,45.0,39.0,30.29,ESE,117,0.0,0.0,79,0.00,,,0.00,,2013-04-21 12:12:00,
2013-04-21 07:22:00,46.0,40.0,30.30,North,5,0.0,1.0,78,0.00,,,0.00,,2013-04-21 12:22:00,
2013-04-21 07:32:00,47.0,40.0,30.31,NE,34,0.0,2.0,77,0.00,,,0.00,,2013-04-21 12:32:00,
2013-04-21 07:42:00,47.0,40.0,30.31,NE,34,0.0,2.0,77,0.00,,,0.00,,2013-04-21 12:42:00,
2013-04-21 07:52:00,48.0,40.0,30.31,NNE,20,0.0,3.0,73,0.00,,,0.00,,2013-04-21 12:52:00,
2013-04-21 08:01:00,50.0,40.0,30.31,ESE,102,2.0,6.0,69,0.00,,,0.00,,2013-04-21 13:01:00,
2013-04-21 08:11:00,50.0,40.0,30.31,ESE,102,2.0,6.0,69,0.00,,,0.00,,2013-04-21 13:11:00,
2013-04-21 08:21:00,51.0,40.0,30.31,ESE,106,1.0,7.0,66,0.00,,,0.00,,2013-04-21 13:21:00,
2013-04-21 08:32:00,51.0,39.0,30.31,ENE,74,4.0,9.0,64,0.00,,,0.00,,2013-04-21 13:32:00,
2013-04-21 08:42:00,51.0,39.0,30.31,ENE,74,4.0,9.0,64,0.00,,,0.00,,2013-04-21 13:42:00,
2013-04-21 08:52:00,52.0,39.0,30.31,SSE,163,3.0,10.0,62,0.00,,,0.00,,2013-04-21 13:52:00,
2013-04-21 09:02:00,53.0,40.0,30.31,SW,228,1.0,7.0,62,0.00,,,0.00,,2013-04-21 14:02:00,
2013-04-21 09:11:00,53.0,40.0,30.31,SW,228,1.0,7.0,62,0.00,,,0.00,,2013-04-21 14:11:00,
2013-04-21 09:21:00,54.0,40.0,30.32,SE,135,2.0,8.0,59,0.00,,,0.00,,2013-04-21 14:21:00,
2013-04-21 09:32:00,55.0,41.0,30.32,ESE,122,3.0,7.0,58,0.00,,,0.00,,2013-04-21 14:32:00,
2013-04-21 09:42:00,55.0,41.0,30.32,ESE,122,3.0,7.0,58,0.00,,,0.00,,2013-04-21 14:42:00,
2013-04-21 09:52:00,57.0,41.0,30.31,SSE,160,4.0,6.0,55,0.00,,,0.00,,2013-04-21 14:52:00,
2013-04-21 10:02:00,58.0,40.0,30.31,ESE,103,2.0,6.0,52,0.00,,,0.00,,2013-04-21 15:02:00,
2013-04-21 10:11:00,58.0,40.0,30.31,ESE,103,2.0,6.0,52,0.00,,,0.00,,2013-04-21 15:11:00,
2013-04-21 10:22:00,59.0,40.0,30.31,ESE,120,3.0,9.0,49,0.00,,,0.00,,2013-04-21 15:22:00,
2013-04-21 10:33:00,59.0,39.0,30.31,SE,141,4.0,9.0,48,0.00,,,0.00,,2013-04-21 15:33:00,
2013-04-21 10:42:00,59.0,39.0,30.31,SE,141,4.0,9.0,48,0.00,,,0.00,,2013-04-21 15:42:00,
2013-04-21 10:53:00,60.0,40.0,30.31,SE,140,2.0,9.0,48,0.00,,,0.00,,2013-04-21 15:53:00,
2013-04-21 11:03:00,60.0,39.0,30.31,South,179,6.0,13.0,45,0.00,,,0.00,,2013-04-21 16:03:00,
2013-04-21 11:12:00,60.0,39.0,30.31,South,179,6.0,13.0,45,0.00,,,0.00,,2013-04-21 16:12:00,
2013-04-21 11:22:00,61.0,39.0,30.31,SSE,156,6.0,11.0,44,0.00,,,0.00,,2013-04-21 16:22:00,
2013-04-21 11:33:00,61.0,40.0,30.30,ESE,111,4.0,8.0,45,0.00,,,0.00,,2013-04-21 16:33:00,
2013-04-21 11:42:00,61.0,40.0,30.30,ESE,111,4.0,8.0,45,0.00,,,0.00,,2013-04-21 16:42:00,
2013-04-21 11:52:00,63.0,41.0,30.29,SE,127,2.0,8.0,45,0.00,,,0.00,,2013-04-21 16:52:00,
2013-04-21 12:02:00,63.0,38.0,30.29,East,101,3.0,12.0,40,0.00,,,0.00,,2013-04-21 17:02:00,
2013-04-21 12:12:00,65.0,41.0,30.28,South,169,3.0,12.0,41,0.00,,,0.00,,2013-04-21 17:12:00,
2013-04-21 12:23:00,65.0,41.0,30.28,South,169,3.0,12.0,41,0.00,,,0.00,,2013-04-21 17:23:00,
2013-04-21 12:32:00,66.0,42.0,30.27,East,94,4.0,11.0,42,0.00,,,0.00,,2013-04-21 17:32:00,
2013-04-21 12:42:00,66.0,42.0,30.27,East,94,4.0,11.0,42,0.00,,,0.00,,2013-04-21 17:42:00,
2013-04-21 12:52:00,65.0,40.0,30.27,SE,146,2.0,8.0,40,0.00,,,0.00,,2013-04-21 17:52:00,
2013-04-21 13:02:00,64.0,40.0,30.26,ESE,121,3.0,11.0,42,0.00,,,0.00,,2013-04-21 18:02:00,
2013-04-21 13:11:00,64.0,40.0,30.26,ESE,121,3.0,11.0,42,0.00,,,0.00,,2013-04-21 18:11:00,
2013-04-21 13:22:00,64.0,40.0,30.25,East,92,3.0,11.0,41,0.00,,,0.00,,2013-04-21 18:22:00,
2013-04-21 13:32:00,64.0,41.0,30.24,ESE,120,3.0,9.0,43,0.00,,,0.00,,2013-04-21 18:32:00,
2013-04-21 13:42:00,64.0,41.0,30.24,ESE,120,3.0,9.0,43,0.00,,,0.00,,2013-04-21 18:42:00,
2013-04-21 13:52:00,64.0,40.0,30.24,ESE,114,3.0,9.0,41,0.00,,,0.00,,2013-04-21 18:52:00,
2013-04-21 14:02:00,64.0,39.0,30.24,SSE,150,3.0,10.0,39,0.00,,,0.00,,2013-04-21 19:02:00,
2013-04-21 14:12:00,64.0,39.0,30.24,SSE,150,3.0,10.0,39,0.00,,,0.00,,2013-04-21 19:12:00,
2013-04-21 14:21:00,65.0,39.0,30.23,ENE,70,4.0,11.0,39,0.00,,,0.00,,2013-04-21 19:21:00,
2013-04-21 14:32:00,66.0,40.0,30.22,East,81,3.0,10.0,39,0.00,,,0.00,,2013-04-21 19:32:00,
2013-04-21 14:42:00,66.0,40.0,30.22,East,81,3.0,10.0,39,0.00,,,0.00,,2013-04-21 19:42:00,
2013-04-21 14:52:00,66.0,39.0,30.21,WNW,298,2.0,11.0,37,0.00,,,0.00,,2013-04-21 19:52:00,
2013-04-21 15:02:00,67.0,40.0,30.21,East,86,4.0,10.0,37,0.00,,,0.00,,2013-04-21 20:02:00,
2013-04-21 15:11:00,67.0,40.0,30.21,East,86,4.0,10.0,37,0.00,,,0.00,,2013-04-21 20:11:00,
2013-04-21 15:22:00,67.0,36.0,30.20,SSE,155,8.0,14.0,32,0.00,,,0.00,,2013-04-21 20:22:00,
2013-04-21 15:32:00,68.0,39.0,30.19,SSE,163,5.0,14.0,34,0.00,,,0.00,,2013-04-21 20:32:00,
2013-04-21 15:42:00,68.0,39.0,30.19,SSE,163,5.0,14.0,34,0.00,,,0.00,,2013-04-21 20:42:00,
2013-04-21 15:52:00,68.0,39.0,30.18,SE,141,5.0,11.0,34,0.00,,,0.00,,2013-04-21 20:52:00,
2013-04-21 16:02:00,68.0,39.0,30.17,ESE,109,6.0,12.0,34,0.00,,,0.00,,2013-04-21 21:02:00,
2013-04-21 16:12:00,68.0,39.0,30.17,SE,124,4.0,12.0,35,0.00,,,0.00,,2013-04-21 21:12:00,
2013-04-21 16:21:00,68.0,39.0,30.17,SE,124,4.0,12.0,35,0.00,,,0.00,,2013-04-21 21:21:00,
2013-04-21 16:33:00,68.0,39.0,30.16,SE,143,6.0,14.0,35,0.00,,,0.00,,2013-04-21 21:33:00,
2013-04-21 16:43:00,68.0,39.0,30.16,SE,143,6.0,14.0,35,0.00,,,0.00,,2013-04-21 21:43:00,
2013-04-21 16:53:00,67.0,38.0,30.16,South,170,4.0,10.0,35,0.00,,,0.00,,2013-04-21 21:53:00,
2013-04-21 17:02:00,66.0,39.0,30.16,ESE,114,4.0,13.0,37,0.00,,,0.00,,2013-04-21 22:02:00,
2013-04-21 17:12:00,66.0,39.0,30.16,ESE,114,4.0,13.0,37,0.00,,,0.00,,2013-04-21 22:12:00,
2013-04-21 17:22:00,65.0,39.0,30.16,ENE,65,4.0,8.0,38,0.00,,,0.00,,2013-04-21 22:22:00,
2013-04-21 17:33:00,65.0,39.0,30.16,ESE,113,5.0,10.0,38,0.00,,,0.00,,2013-04-21 22:33:00,
2013-04-21 17:43:00,65.0,39.0,30.16,ESE,113,5.0,10.0,38,0.00,,,0.00,,2013-04-21 22:43:00,
2013-04-21 17:52:00,65.0,39.0,30.16,East,84,5.0,11.0,39,0.00,,,0.00,,2013-04-21 22:52:00,
2013-04-21 18:02:00,65.0,39.0,30.16,SE,133,4.0,11.0,39,0.00,,,0.00,,2013-04-21 23:02:00,
2013-04-21 18:12:00,65.0,39.0,30.16,SE,133,4.0,11.0,39,0.00,,,0.00,,2013-04-21 23:12:00,
2013-04-21 18:22:00,64.0,39.0,30.16,ESE,110,5.0,12.0,40,0.00,,,0.00,,2013-04-21 23:22:00,
2013-04-21 18:32:00,65.0,40.0,30.16,East,84,1.0,12.0,40,0.00,,,0.00,,2013-04-21 23:32:00,
2013-04-21 18:42:00,65.0,40.0,30.16,East,84,1.0,12.0,40,0.00,,,0.00,,2013-04-21 23:42:00,
2013-04-21 18:52:00,65.0,39.0,30.16,ENE,67,5.0,12.0,39,0.00,,,0.00,,2013-04-21 23:52:00,
2013-04-21 19:01:00,65.0,41.0,30.16,East,93,2.0,8.0,41,0.00,,,0.00,,2013-04-22 00:01:00,
2013-04-21 19:11:00,65.0,41.0,30.16,East,93,2.0,8.0,41,0.00,,,0.00,,2013-04-22 00:11:00,
2013-04-21 19:21:00,64.0,40.0,30.16,ESE,114,1.0,9.0,41,0.00,,,0.00,,2013-04-22 00:21:00,
2013-04-21 19:32:00,63.0,40.0,30.17,East,96,5.0,9.0,42,0.00,,,0.00,,2013-04-22 00:32:00,
2013-04-21 19:42:00,63.0,40.0,30.17,East,96,5.0,9.0,42,0.00,,,0.00,,2013-04-22 00:42:00,
2013-04-21 19:52:00,62.0,40.0,30.17,ESE,115,1.0,6.0,45,0.00,,,0.00,,2013-04-22 00:52:00,
2013-04-21 20:01:00,61.0,41.0,30.18,East,86,2.0,7.0,47,0.00,,,0.00,,2013-04-22 01:01:00,
2013-04-21 20:12:00,61.0,41.0,30.18,East,86,2.0,7.0,47,0.00,,,0.00,,2013-04-22 01:12:00,
2013-04-21 20:21:00,60.0,41.0,30.18,East,80,2.0,6.0,49,0.00,,,0.00,,2013-04-22 01:21:00,
2013-04-21 20:32:00,59.0,41.0,30.19,East,97,2.0,6.0,51,0.00,,,0.00,,2013-04-22 01:32:00,
2013-04-21 20:41:00,59.0,41.0,30.19,East,97,2.0,6.0,51,0.00,,,0.00,,2013-04-22 01:41:00,
2013-04-21 20:52:00,58.0,41.0,30.19,ESE,113,2.0,5.0,54,0.00,,,0.00,,2013-04-22 01:52:00,
2013-04-21 21:02:00,57.0,41.0,30.20,East,94,2.0,5.0,55,0.00,,,0.00,,2013-04-22 02:02:00,
2013-04-21 21:11:00,57.0,41.0,30.20,East,94,2.0,5.0,55,0.00,,,0.00,,2013-04-22 02:11:00,
2013-04-21 21:21:00,57.0,40.0,30.20,ENE,74,2.0,7.0,53,0.00,,,0.00,,2013-04-22 02:21:00,
2013-04-21 21:32:00,56.0,40.0,30.21,East,91,1.0,4.0,54,0.00,,,0.00,,2013-04-22 02:32:00,
2013-04-21 21:42:00,56.0,40.0,30.21,East,91,1.0,4.0,54,0.00,,,0.00,,2013-04-22 02:42:00,
2013-04-21 21:52:00,56.0,40.0,30.21,ENE,74,1.0,5.0,54,0.00,,,0.00,,2013-04-22 02:52:00,
2013-04-21 22:02:00,56.0,40.0,30.21,ENE,65,2.0,5.0,55,0.00,,,0.00,,2013-04-22 03:02:00,
2013-04-21 22:11:00,56.0,40.0,30.21,ENE,65,2.0,5.0,55,0.00,,,0.00,,2013-04-22 03:11:00,
2013-04-21 22:22:00,55.0,40.0,30.21,East,96,0.0,2.0,56,0.00,,,0.00,,2013-04-22 03:22:00,
2013-04-21 22:33:00,55.0,40.0,30.21,ESE,121,2.0,6.0,57,0.00,,,0.00,,2013-04-22 03:33:00,
2013-04-21 22:42:00,55.0,40.0,30.21,ESE,121,2.0,6.0,57,0.00,,,0.00,,2013-04-22 03:42:00,
2013-04-21 22:52:00,54.0,40.0,30.21,SE,128,2.0,5.0,58,0.00,,,0.00,,2013-04-22 03:52:00,
2013-04-21 23:02:00,54.0,40.0,30.21,ESE,108,1.0,4.0,59,0.00,,,0.00,,2013-04-22 04:02:00,
2013-04-21 23:12:00,54.0,40.0,30.21,ESE,108,1.0,4.0,59,0.00,,,0.00,,2013-04-22 04:12:00,
2013-04-21 23:23:00,54.0,40.0,30.21,ESE,108,1.0,4.0,59,0.00,,,0.00,,2013-04-22 04:23:00,
2013-04-21 23:32:00,53.0,40.0,30.21,ENE,65,0.0,2.0,61,0.00,,,0.00,,2013-04-22 04:32:00,
2013-04-21 23:43:00,53.0,40.0,30.21,ENE,65,0.0,2.0,61,0.00,,,0.00,,2013-04-22 04:43:00,
2013-04-21 23:53:00,52.0,40.0,30.21,East,89,0.0,0.0,64,0.00,,,0.00,,2013-04-22 04:53:00,